AMX161 MMMX-MMAA

Flight info

Callsign AMX161
Flight time 0h 34m
Altitude 24000
Route TEVOS2B TEVOS UT116 ANALU ANALU1B
Aircraft B738/M-SDE2E3FGHIRWXY/LB1

Departure

Time 2026-04-26 03:26
Airport Mexico City Benito Juárez International Airport (MMMX)

Arrival

Time 2026-04-26 04:00
Airport General Juan N. Álvarez International Airport (MMAA)
Time Latitude Longitude Altitude Speed Heading
2026-04-26 02:55 19.42312 -99.08044 7347 ft 0 kts 186°
2026-04-26 03:15 19.42315 -99.08041 7347 ft 0 kts 311°
2026-04-26 03:15 19.42342 -99.07967 7347 ft 0 kts 311°
2026-04-26 03:20 19.42344 -99.07969 7347 ft 0 kts 312°
2026-04-26 03:20 19.42350 -99.07976 7347 ft 4 kts 312°
2026-04-26 03:20 19.42400 -99.08023 7348 ft 11 kts 326°
2026-04-26 03:21 19.42462 -99.08063 7348 ft 9 kts 330°
2026-04-26 03:21 19.42518 -99.08097 7348 ft 8 kts 329°
2026-04-26 03:21 19.42573 -99.08131 7349 ft 10 kts 331°
2026-04-26 03:21 19.42613 -99.08179 7349 ft 8 kts 275°
2026-04-26 03:22 19.42593 -99.08225 7349 ft 6 kts 236°
2026-04-26 03:22 19.42570 -99.08258 7349 ft 5 kts 234°
2026-04-26 03:22 19.42556 -99.08293 7349 ft 6 kts 267°
2026-04-26 03:22 19.42566 -99.08340 7349 ft 8 kts 290°
2026-04-26 03:23 19.42592 -99.08406 7349 ft 9 kts 294°
2026-04-26 03:23 19.42616 -99.08465 7349 ft 8 kts 293°
2026-04-26 03:23 19.42636 -99.08516 7349 ft 6 kts 291°
2026-04-26 03:23 19.42653 -99.08559 7348 ft 5 kts 296°
2026-04-26 03:24 19.42675 -99.08585 7348 ft 4 kts 328°
2026-04-26 03:24 19.42698 -99.08588 7349 ft 2 kts 17°
2026-04-26 03:24 19.42712 -99.08577 7349 ft 2 kts 55°
2026-04-26 03:24 19.42715 -99.08572 7349 ft 0 kts 59°
2026-04-26 03:25 19.42781 -99.08447 7350 ft 54 kts 60°
2026-04-26 03:25 19.43089 -99.07883 7351 ft 121 kts 60°
2026-04-26 03:25 19.43626 -99.06927 7347 ft 177 kts 64°
2026-04-26 03:26 19.44235 -99.05789 7978 ft 178 kts 63°
2026-04-26 03:26 19.44869 -99.04655 8632 ft 186 kts 64°
2026-04-26 03:26 19.45536 -99.03449 9247 ft 193 kts 62°
2026-04-26 03:26 19.46223 -99.02261 9940 ft 193 kts 60°
2026-04-26 03:27 19.46908 -99.00999 10496 ft 202 kts 65°
2026-04-26 03:27 19.47606 -98.99624 10810 ft 225 kts 55°
2026-04-26 03:27 19.48625 -98.98264 11217 ft 246 kts 51°
2026-04-26 03:27 19.49699 -98.96758 11661 ft 265 kts 62°
2026-04-26 03:28 19.50192 -98.94866 12188 ft 281 kts 91°
2026-04-26 03:28 19.49649 -98.92853 12805 ft 292 kts 121°
2026-04-26 03:28 19.48265 -98.91305 13572 ft 296 kts 145°
2026-04-26 03:28 19.46502 -98.90157 14344 ft 300 kts 150°
2026-04-26 03:29 19.44674 -98.89069 15006 ft 308 kts 155°
2026-04-26 03:29 19.42537 -98.88483 15461 ft 323 kts 178°
2026-04-26 03:29 19.40264 -98.88552 15951 ft 337 kts 186°
2026-04-26 03:29 19.37850 -98.88809 16420 ft 354 kts 187°
2026-04-26 03:30 19.35373 -98.89052 16889 ft 370 kts 185°
2026-04-26 03:30 19.32756 -98.89239 17391 ft 384 kts 184°
2026-04-26 03:30 19.30026 -98.89381 17894 ft 398 kts 183°
2026-04-26 03:30 19.27229 -98.89492 18651 ft 402 kts 182°
2026-04-26 03:31 19.24415 -98.89589 19444 ft 403 kts 182°
2026-04-26 03:31 19.21612 -98.89681 20112 ft 408 kts 183°
2026-04-26 03:31 19.18775 -98.89775 20792 ft 412 kts 183°
2026-04-26 03:31 19.15887 -98.89873 21450 ft 416 kts 183°
2026-04-26 03:32 19.12966 -98.89972 22095 ft 420 kts 184°
2026-04-26 03:32 19.10050 -98.90071 22755 ft 423 kts 184°
2026-04-26 03:32 19.07085 -98.90174 23385 ft 427 kts 184°
2026-04-26 03:32 19.04097 -98.90281 24045 ft 430 kts 184°
2026-04-26 03:33 19.01121 -98.90389 24868 ft 427 kts 184°
2026-04-26 03:33 18.98167 -98.90490 25722 ft 423 kts 184°
2026-04-26 03:33 18.95246 -98.90589 26448 ft 422 kts 184°
2026-04-26 03:33 18.92305 -98.90691 27159 ft 421 kts 184°
2026-04-26 03:34 18.89353 -98.90792 27841 ft 420 kts 184°
2026-04-26 03:34 18.86427 -98.90894 28243 ft 424 kts 184°
2026-04-26 03:34 18.80487 -98.91102 28271 ft 422 kts 184°
2026-04-26 03:35 18.74644 -98.91297 28245 ft 417 kts 184°
2026-04-26 03:35 18.68840 -98.91491 28209 ft 419 kts 184°
2026-04-26 03:36 18.62982 -98.91691 28205 ft 419 kts 184°
2026-04-26 03:36 18.57154 -98.91897 28192 ft 419 kts 184°
2026-04-26 03:37 18.51305 -98.92103 28174 ft 420 kts 184°
2026-04-26 03:37 18.45445 -98.92342 28157 ft 419 kts 185°
2026-04-26 03:38 18.39726 -98.93398 28144 ft 417 kts 199°
2026-04-26 03:38 18.34272 -98.95517 28132 ft 415 kts 204°
2026-04-26 03:39 18.28935 -98.97817 28102 ft 416 kts 204°
2026-04-26 03:39 18.23536 -99.00112 28079 ft 415 kts 204°
2026-04-26 03:40 18.18174 -99.02329 28063 ft 415 kts 203°
2026-04-26 03:40 18.12762 -99.04533 28052 ft 416 kts 203°
2026-04-26 03:41 18.07359 -99.06724 28051 ft 417 kts 203°
2026-04-26 03:41 18.01926 -99.08920 28032 ft 416 kts 203°
2026-04-26 03:42 17.96614 -99.11059 27790 ft 402 kts 203°
2026-04-26 03:42 17.93999 -99.12112 27376 ft 398 kts 203°
2026-04-26 03:42 17.91433 -99.13148 26908 ft 396 kts 203°
2026-04-26 03:43 17.88842 -99.14193 26397 ft 395 kts 203°
2026-04-26 03:43 17.86263 -99.15234 25896 ft 393 kts 203°
2026-04-26 03:43 17.83719 -99.16259 25401 ft 392 kts 203°
2026-04-26 03:43 17.81180 -99.17281 24909 ft 390 kts 203°
2026-04-26 03:44 17.78649 -99.18298 24418 ft 388 kts 203°
2026-04-26 03:44 17.76145 -99.19307 23929 ft 387 kts 203°
2026-04-26 03:44 17.73642 -99.20314 23450 ft 385 kts 203°
2026-04-26 03:44 17.71118 -99.21333 22955 ft 383 kts 203°
2026-04-26 03:45 17.68671 -99.22321 22474 ft 382 kts 202°
2026-04-26 03:45 17.66175 -99.23341 21988 ft 380 kts 204°
2026-04-26 03:45 17.63767 -99.24467 21506 ft 378 kts 208°
2026-04-26 03:45 17.61440 -99.25746 21008 ft 377 kts 210°
2026-04-26 03:46 17.59149 -99.27097 20511 ft 376 kts 211°
2026-04-26 03:46 17.56884 -99.28456 20014 ft 375 kts 211°
2026-04-26 03:46 17.54635 -99.29800 19515 ft 374 kts 210°
2026-04-26 03:47 17.50084 -99.32455 18522 ft 372 kts 208°
2026-04-26 03:47 17.47753 -99.33581 18024 ft 371 kts 201°
2026-04-26 03:47 17.45340 -99.34487 17529 ft 363 kts 197°
2026-04-26 03:47 17.42942 -99.35259 17050 ft 355 kts 195°
2026-04-26 03:48 17.40574 -99.35977 16619 ft 350 kts 195°
2026-04-26 03:48 17.38262 -99.36680 16106 ft 348 kts 195°
2026-04-26 03:48 17.35932 -99.37404 15631 ft 348 kts 196°
2026-04-26 03:48 17.33611 -99.38139 15148 ft 348 kts 196°
2026-04-26 03:49 17.31302 -99.38883 14668 ft 347 kts 196°
2026-04-26 03:49 17.28977 -99.39638 14194 ft 347 kts 196°
2026-04-26 03:49 17.26698 -99.40379 13726 ft 347 kts 196°
2026-04-26 03:49 17.24374 -99.41135 13248 ft 346 kts 196°
2026-04-26 03:50 17.22096 -99.41877 12764 ft 345 kts 196°
2026-04-26 03:50 17.19783 -99.42629 12300 ft 343 kts 196°
2026-04-26 03:50 17.17525 -99.43362 11838 ft 342 kts 197°
2026-04-26 03:50 17.15255 -99.44099 11531 ft 334 kts 196°
2026-04-26 03:51 17.13081 -99.44805 11341 ft 321 kts 196°
2026-04-26 03:51 17.10990 -99.45483 11091 ft 309 kts 197°
2026-04-26 03:51 17.08935 -99.46147 10675 ft 302 kts 197°
2026-04-26 03:51 17.06976 -99.46779 10469 ft 289 kts 197°
2026-04-26 03:52 17.05030 -99.47405 10027 ft 293 kts 197°
2026-04-26 03:52 17.03104 -99.48025 9489 ft 292 kts 197°
2026-04-26 03:52 17.01162 -99.48654 8961 ft 289 kts 197°
2026-04-26 03:52 16.99236 -99.49279 8482 ft 286 kts 197°
2026-04-26 03:53 16.97348 -99.49891 8014 ft 282 kts 197°
2026-04-26 03:53 16.95495 -99.50492 7545 ft 280 kts 197°
2026-04-26 03:53 16.93620 -99.51099 7106 ft 281 kts 197°
2026-04-26 03:53 16.91746 -99.51705 6581 ft 281 kts 197°
2026-04-26 03:54 16.89907 -99.52298 6102 ft 277 kts 197°
2026-04-26 03:54 16.88065 -99.52892 5622 ft 274 kts 196°
2026-04-26 03:54 16.86250 -99.53481 5150 ft 271 kts 197°
2026-04-26 03:54 16.84464 -99.54057 4683 ft 268 kts 197°
2026-04-26 03:55 16.82708 -99.54622 4205 ft 266 kts 197°
2026-04-26 03:55 16.80941 -99.55191 3720 ft 264 kts 197°
2026-04-26 03:55 16.79170 -99.55765 3277 ft 264 kts 197°
2026-04-26 03:55 16.77419 -99.56343 2788 ft 269 kts 198°
2026-04-26 03:56 16.75622 -99.56953 2356 ft 270 kts 198°
2026-04-26 03:56 16.73891 -99.57574 2236 ft 255 kts 202°
2026-04-26 03:56 16.72351 -99.58499 1812 ft 255 kts 224°
2026-04-26 03:56 16.71536 -99.59987 1797 ft 229 kts 258°
2026-04-26 03:57 16.71471 -99.61566 1788 ft 206 kts 278°
2026-04-26 03:57 16.71852 -99.62888 1757 ft 178 kts 296°
2026-04-26 03:57 16.72273 -99.64064 1783 ft 164 kts 285°
2026-04-26 03:57 16.72565 -99.65185 1607 ft 161 kts 289°
2026-04-26 03:58 16.72911 -99.66265 1333 ft 153 kts 289°
2026-04-26 03:58 16.73239 -99.67299 1157 ft 149 kts 289°
2026-04-26 03:58 16.73566 -99.68341 963 ft 153 kts 288°
2026-04-26 03:58 16.73873 -99.69400 735 ft 154 kts 287°
2026-04-26 03:59 16.74185 -99.70455 521 ft 153 kts 288°
2026-04-26 03:59 16.74522 -99.71529 384 ft 155 kts 287°
2026-04-26 03:59 16.74841 -99.72601 174 ft 153 kts 287°
2026-04-26 03:59 16.75169 -99.73634 27 ft 148 kts 284°
2026-04-26 04:00 16.75441 -99.74539 27 ft 99 kts 289°
2026-04-26 04:00 16.75571 -99.74912 27 ft 34 kts 303°
2026-04-26 04:00 16.75734 -99.75063 27 ft 18 kts 332°
2026-04-26 04:00 16.75847 -99.75115 27 ft 17 kts 337°
2026-04-26 04:01 16.75968 -99.75169 27 ft 11 kts 336°
2026-04-26 04:01 16.76003 -99.75195 28 ft 6 kts 291°
2026-04-26 04:01 16.75979 -99.75268 28 ft 17 kts 246°
2026-04-26 04:01 16.75983 -99.75393 28 ft 17 kts 290°
2026-04-26 04:02 16.76022 -99.75512 28 ft 15 kts 286°
2026-04-26 04:02 16.76065 -99.75578 28 ft 10 kts 27°
2026-04-26 04:02 16.76103 -99.75568 28 ft 7 kts
2026-04-26 04:02 16.76131 -99.75560 28 ft 0 kts 18°
2026-04-26 04:03 16.76136 -99.75558 28 ft 0 kts 18°